[[[{"header":{"parameterUnit":"kt","parameterCategory":2,"dx":1,"dy":1,"la1":30.253999710083008,"la2":30.299108505249023,"lo1":-89.0895004272461,"lo2":-89.04439544677734,"nx":28,"ny":28,"refTime":"2022-10-02T21:00:00:Z","depth":0,"parameterNumber":1,"parameterNumberName":"U-component_of_WINDS"},"data":[-4.3925,-4.4143,-4.4129,-4.4371,-4.4399,-4.4563,-4.4616,-4.4684,-4.4734,-4.4927,-4.5035,-4.5042,-4.5086,-4.5212,-4.5329,-4.5329,-4.5382,-4.5469,-4.5456,-4.5074,-4.5021,-4.4969,-4.4918,-4.548,-4.548,-4.5855,-4.5859,-4.5861,-4.3646,-4.3676,-4.3799,-4.3909,-4.4015,-4.3921,-4.4,-4.4096,-4.4245,-4.4307,-4.4413,-4.4582,-4.4713,-4.4727,-4.4851,-4.4953,-4.4917,-4.4988,-4.4983,-4.4992,-4.4582,-4.4527,-4.5015,-4.5015,-4.5015,-4.5015,-4.5015,-4.5015,-4.3135,-4.3267,-4.3324,-4.3458,-4.3509,-4.3582,-4.3705,-4.3711,-4.3831,-4.3959,-4.3916,-4.4084,-4.4144,-4.4286,-4.4329,-4.446,-4.4379,-4.4453,-4.4472,-4.4493,-4.4519,-4.3986,-4.4479,-4.4478,-4.4477,-4.4475,-4.4474,0,-4.2758,-4.2736,-4.2853,-4.2967,-4.3063,-4.315,-4.3226,-4.3301,-4.325,-4.3352,-4.3498,-4.358,-4.3742,-4.3879,-4.399,-4.4021,-4.3937,-4.3925,-4.3976,-4.4003,-4.4012,-4.4014,-4.3351,-4.3912,-4.3907,-4.3904,-4.3901,-4.3899,-4.2245,-4.2399,-4.2451,-4.2536,-4.2573,-4.2711,-4.2789,-4.2732,-4.2818,-4.2904,-4.3023,-4.3157,-4.3263,-4.35,-4.3506,-4.3627,-4.3588,-4.3805,-4.3607,-4.3624,-4.3598,-4.3591,-4.3608,-4.3847,-4.3854,-4.3859,-4.3863,0,-4.1959,-4.1933,-4.2166,-4.2202,-4.2216,-4.238,-4.2411,-4.254,-4.253,-4.2706,-4.2744,-4.2731,-4.2876,-4.2845,-4.3005,-4.2985,-4.3259,-4.3214,-4.3237,-4.3229,-4.3423,-4.3408,-4.4051,-4.4133,-4.3545,-4.355,-4.3555,0,-4.1514,-4.1718,-4.1668,-4.1805,-4.2029,-4.1966,-4.219,-4.2204,-4.2254,-4.2392,-4.2289,-4.2421,-4.236,-4.2488,-4.2459,-4.2676,-4.2705,-4.2704,-4.2696,-4.2718,-4.2719,-4.2767,-4.2742,-4.2663,-4.266,-4.2657,-4.2654,0,-4.1074,-4.1283,-4.1504,-4.1548,-4.1608,-4.1713,-4.1743,-4.1798,-4.1876,-4.1971,-4.2021,-4.2137,-4.2202,-4.2293,-4.2256,-4.2123,-4.2519,-4.2328,-4.2519,-4.2521,-4.2613,-4.2609,-4.3181,-4.265,-4.2649,-4.2648,-4.2647,0,-4.0712,-4.0809,-4.1132,-4.1179,-4.1237,-4.1382,-4.1492,-4.1608,-4.1674,-4.1665,-4.174,-4.1669,-4.1853,-4.1666,-4.192,-4.1758,-4.1828,-4.1843,-4.1856,-4.1876,-4.167,-4.2003,-4.2545,-4.2604,-4.1887,-4.1881,-4.1875,0,-4.0216,-4.0535,-4.0483,-4.0791,-4.0935,-4.081,-4.097,-4.103,-4.1031,-4.1153,-4.1153,-4.1293,-4.1147,-4.1187,-4.1316,-4.1324,-4.1534,-4.1293,-4.1476,-4.1483,-4.1467,-4.1964,-4.2056,-4.2428,-4.1793,-4.1802,-4.1808,0,-3.983,-3.9899,-3.9958,-4.0006,-4.0076,-4.0195,-4.0377,-4.0502,-4.0586,-4.0664,-4.0819,-4.1012,-4.0911,-4.0978,-4.0933,-4.107,-4.139,-4.0943,-4.0944,-4.1029,-4.1748,-4.1834,-4.1897,-4.1329,-4.1339,-4.1347,-4.1743,0,-3.9298,-3.9452,-3.9608,-3.9717,-3.9803,-3.9993,-3.996,-4.0055,-4.0002,-3.9999,-4.0223,-4.0265,-4.0394,-4.0454,-4.0405,-4.0725,-4.0668,-4.0559,-4.038,-4.0704,-4.0835,-4.0888,-4.0188,-4.0183,-4.0178,-4.0174,0,0,-3.8833,-3.9054,-3.8991,-3.9167,-3.9236,-3.9104,-3.9311,-3.9363,-3.9473,-3.9525,-3.9423,-3.9705,-3.9745,-4.0021,-4.0119,-4.017,-4.0226,-4.0114,-4.0549,-4.0591,-4.063,-4.077,-4.0825,-4.0166,-4.0164,-4.0163,-4.0161,0,-3.8633,-3.8673,-3.8877,-3.8927,-3.9,-3.8986,-3.9035,-3.9085,-3.9093,-3.931,-3.9201,-3.9331,-3.9558,-3.9616,-3.9675,-4.0078,-3.9991,-4.0118,-4.0347,-4.0503,-4.0551,-4.0594,-4.0741,-4.0794,-4.015,-4.0151,-4.0151,0,-3.825,-3.8285,-3.838,-3.8529,-3.8576,-3.8726,-3.8528,-3.8694,-3.8805,-3.8655,-3.8875,-3.8895,-3.8969,-3.9232,-3.9349,-3.9261,-3.9779,-3.9608,-3.9637,-3.9651,-3.9801,-3.9858,-3.991,-3.9233,-3.923,-3.9227,0,0,-3.8082,-3.8224,-3.8245,-3.8483,-3.852,-3.8502,-3.8578,-3.8534,-3.8602,-3.863,-3.8655,-3.8725,-3.8856,-3.8944,-3.9065,-3.9358,-3.9371,-3.9497,-3.954,-3.9576,-3.9609,-3.9768,-3.9825,-3.9216,-3.9216,-3.9215,0,0,-3.8003,-3.8036,-3.797,-3.8242,-3.8309,-3.8347,-3.8495,-3.8416,-3.8522,-3.8497,-3.8431,-3.8447,-3.8693,-3.8717,-3.8566,-3.9002,-3.8824,-3.886,-3.8978,-3.9032,-3.9074,-3.9066,-3.8373,0,0,0,0,0,-3.7782,-3.8031,-3.7971,-3.8011,-3.8201,-3.838,-3.8404,-3.8355,-3.823,-3.8348,-3.8356,-3.8256,-3.8622,-3.8487,-3.8529,-3.87,-3.9067,-3.9093,-3.9118,-3.9339,-3.9396,-3.9444,0,0,0,0,0,0,-3.7797,-3.7847,-3.7964,-3.8013,-3.8055,-3.837,-3.8149,-3.8142,-3.8216,-3.8194,-3.8257,-3.8258,-3.822,-3.8462,-3.8501,-3.8664,-3.8359,-3.9077,-3.9099,-3.912,-3.9358,-3.9405,-3.9445,0,0,0,0,0,-3.7809,-3.7849,-3.8165,-3.8009,-3.8046,-3.804,-3.8139,-3.8132,-3.8188,-3.8201,-3.8198,-3.8144,-3.8226,-3.8255,-3.8485,-3.8648,-3.8332,-3.8347,-3.9092,-3.9109,-3.9125,-3.9381,0,0,0,0,0,0,-3.7818,-3.7845,-3.8171,-3.8181,-3.7911,-3.8021,-3.8036,-3.8123,-3.8189,-3.8189,-3.8084,-3.8066,-3.8233,-3.8255,-3.8278,-3.8645,-3.831,-3.8325,-3.8334,-3.9105,-3.9119,-3.9131,0,0,0,0,0,0,-3.7822,-3.7854,-3.8176,-3.8055,-3.805,-3.8004,-3.8018,-3.8205,-3.8192,-3.8068,-3.8055,-3.8075,-3.8199,-3.8256,-3.8273,-3.8568,-3.8293,-3.8307,-3.8317,-3.8324,-3.9116,-3.9127,0,0,0,0,0,0,-3.7835,-3.7861,-3.8052,-3.8049,-3.8044,-3.8145,-3.8169,-3.8366,-3.8087,-3.8067,-3.8061,-3.8049,-3.8203,-3.8219,-3.8271,-3.8558,-3.8565,-3.8294,-3.8303,-3.831,-3.8315,0,0,0,0,0,0,0,-3.7844,-3.7679,-3.8116,-3.8044,-3.8039,-3.8267,-3.827,-3.8272,-3.8084,-3.8074,-3.8063,-3.8054,-3.8212,-3.8227,-3.8243,-3.8551,0,0,-3.8292,-3.8299,0,0,0,0,0,0,0,0,-3.7666,-3.7676,-3.8116,-3.8118,-3.812,-3.8267,-3.8269,-3.8271,-3.8083,-3.8074,-3.8066,-3.8058,-3.8216,-3.8228,-3.8241,0,0,0,0,0,0,0,0,0,0,0,0,0,0,0,-3.8117,-3.8118,0,-3.8268,-3.8269,-3.8271,-3.8081,-3.8074,-3.8067,-3.8061,-3.8219,-3.823,-3.824,0,0,0,0,0,0,0,0,0,0,0,0,0,0,0,0,0,0,0,0,0,0,0,0,0,0,0,0,0,0,0,0,0,0,0,0,0,0,0,0,0,0,0,0,0,0,0,0,0,0,0,0,0,0,0,0,0,0,0,0,0,0,0,0,0,0,0,0,0]}],[{"header":{"parameterUnit":"kt","parameterCategory":2,"dx":1,"dy":1,"la1":30.253999710083008,"la2":30.299108505249023,"lo1":-89.0895004272461,"lo2":-89.04439544677734,"nx":28,"ny":28,"refTime":"2022-10-02T21:00:00:Z","depth":0,"parameterNumber":2,"parameterNumberName":"V-component_of_WINDS"},"data":[-9.1961,-9.2086,-9.2073,-9.2208,-9.2219,-9.2307,-9.2334,-9.2367,-9.239,-9.2493,-9.2549,-9.2546,-9.2561,-9.2623,-9.2682,-9.2679,-9.2703,-9.2757,-9.2743,-9.2519,-9.2486,-9.2456,-9.2424,-9.2763,-9.2764,-9.2976,-9.2978,-9.2979,-9.1794,-9.1806,-9.1875,-9.1932,-9.1989,-9.1929,-9.1969,-9.202,-9.2101,-9.213,-9.2185,-9.2274,-9.2342,-9.2339,-9.2401,-9.2456,-9.2429,-9.2473,-9.2466,-9.2469,-9.223,-9.2197,-9.2493,-9.2493,-9.2493,-9.2493,-9.2493,-9.2493,-9.1484,-9.156,-9.1587,-9.1661,-9.1686,-9.1724,-9.1793,-9.1789,-9.1855,-9.192,-9.1891,-9.1981,-9.2006,-9.2074,-9.2093,-9.2161,-9.2109,-9.2152,-9.2162,-9.2172,-9.2185,-9.1874,-9.2172,-9.2171,-9.217,-9.2169,-9.2168,0,-9.1252,-9.1235,-9.1301,-9.1362,-9.1416,-9.1462,-9.1501,-9.1544,-9.1502,-9.1559,-9.1638,-9.1681,-9.1765,-9.1836,-9.1891,-9.1901,-9.1841,-9.1835,-9.1863,-9.1877,-9.1881,-9.1876,-9.1483,-9.1826,-9.1823,-9.1821,-9.1819,-9.1818,-9.0935,-9.1027,-9.1049,-9.1097,-9.1115,-9.1194,-9.1236,-9.1194,-9.1241,-9.1282,-9.135,-9.1422,-9.1477,-9.1606,-9.1597,-9.166,-9.163,-9.1762,-9.1639,-9.1649,-9.1627,-9.1621,-9.1628,-9.1786,-9.179,-9.1793,-9.1796,0,-9.0756,-9.0734,-9.0873,-9.0885,-9.0891,-9.0989,-9.0998,-9.1073,-9.106,-9.116,-9.1181,-9.1161,-9.1239,-9.121,-9.1294,-9.1275,-9.143,-9.1402,-9.142,-9.1411,-9.1523,-9.1512,-9.19,-9.1947,-9.16,-9.1603,-9.1606,0,-9.0475,-9.0599,-9.0557,-9.0639,-9.0773,-9.0727,-9.086,-9.0863,-9.0886,-9.0964,-9.0893,-9.0967,-9.0918,-9.0988,-9.0962,-9.1084,-9.1101,-9.1092,-9.1083,-9.1097,-9.1097,-9.1118,-9.11,-9.1064,-9.1062,-9.106,-9.1059,0,-9.0196,-9.032,-9.0453,-9.0477,-9.0503,-9.0566,-9.058,-9.0605,-9.0647,-9.0698,-9.0724,-9.0788,-9.0821,-9.087,-9.0834,-9.0752,-9.0985,-9.0863,-9.0975,-9.0976,-9.1026,-9.1023,-9.1377,-9.1056,-9.1056,-9.1055,-9.1054,0,-8.9964,-9.0019,-9.0218,-9.0236,-9.027,-9.0358,-9.0416,-9.0486,-9.0517,-9.0506,-9.0546,-9.0494,-9.0601,-9.0482,-9.0628,-9.0529,-9.0565,-9.0568,-9.0576,-9.058,-9.0447,-9.0646,-9.099,-9.1023,-9.0588,-9.0584,-9.0581,0,-8.9648,-8.9843,-8.9805,-8.9994,-9.0079,-8.9992,-9.0089,-9.012,-9.0114,-9.0183,-9.0175,-9.0255,-9.0161,-9.0181,-9.0258,-9.0251,-9.038,-9.0234,-9.0329,-9.0333,-9.032,-9.0637,-9.0693,-9.0919,-9.0531,-9.0536,-9.054,0,-8.94,-8.9432,-8.9469,-8.9494,-8.9529,-8.9601,-8.9714,-8.9783,-8.9831,-8.9875,-8.9965,-9.0079,-9.001,-9.0046,-9.0011,-9.0092,-9.0292,-9.0008,-9.0008,-9.0057,-9.0505,-9.0557,-9.0595,-9.0249,-9.0255,-9.026,-9.05,0,-8.9047,-8.9144,-8.9243,-8.9304,-8.9355,-8.9474,-8.9444,-8.9501,-8.9461,-8.9452,-8.9586,-8.9604,-8.9675,-8.9712,-8.9675,-8.9871,-8.9833,-8.976,-8.9639,-8.9849,-8.9927,-8.9959,-8.9525,-8.9522,-8.9519,-8.9516,0,0,-8.8748,-8.8885,-8.8841,-8.8949,-8.8989,-8.8898,-8.9026,-8.9055,-8.9115,-8.9143,-8.9076,-8.9239,-8.9257,-8.9423,-8.9486,-8.9516,-8.9547,-8.9475,-8.975,-8.9777,-8.9801,-8.9885,-8.9919,-8.951,-8.9509,-8.9508,-8.9507,0,-8.8613,-8.8638,-8.8767,-8.8795,-8.8834,-8.8819,-8.885,-8.8872,-8.8872,-8.9005,-8.8926,-8.9003,-8.9136,-8.9164,-8.9195,-8.9456,-8.939,-8.948,-8.9628,-8.972,-8.9751,-8.9777,-8.9866,-8.9899,-8.95,-8.95,-8.95,0,-8.836,-8.8378,-8.8438,-8.8529,-8.8553,-8.8645,-8.8512,-8.8615,-8.8681,-8.8574,-8.8708,-8.8714,-8.875,-8.8912,-8.8984,-8.8925,-8.9248,-8.9142,-8.9161,-8.9167,-8.9254,-8.9291,-8.9324,-8.8893,-8.8891,-8.8889,0,0,-8.8247,-8.8337,-8.8342,-8.8497,-8.8519,-8.8498,-8.8544,-8.8509,-8.8545,-8.8559,-8.8566,-8.8602,-8.8677,-8.8729,-8.8799,-8.8983,-8.8984,-8.9069,-8.9097,-8.9121,-8.914,-8.9233,-8.927,-8.8881,-8.8881,-8.8881,0,0,-8.8192,-8.8204,-8.8159,-8.8336,-8.8373,-8.8387,-8.8482,-8.8426,-8.8486,-8.8469,-8.8414,-8.8421,-8.8573,-8.8582,-8.8485,-8.8754,-8.8636,-8.8659,-8.8743,-8.8778,-8.8806,-8.88,-8.8349,0,0,0,0,0,-8.8038,-8.8203,-8.8161,-8.8187,-8.8301,-8.841,-8.8424,-8.8384,-8.83,-8.8376,-8.8372,-8.8299,-8.8518,-8.8431,-8.8455,-8.8563,-8.8784,-8.8801,-8.8818,-8.8968,-8.9006,-8.9038,0,0,0,0,0,0,-8.8048,-8.8079,-8.8157,-8.8179,-8.8204,-8.8404,-8.8253,-8.8246,-8.8291,-8.8275,-8.8302,-8.83,-8.8267,-8.8415,-8.8438,-8.8541,-8.8341,-8.8791,-8.8806,-8.8819,-8.8981,-8.9012,-8.9039,0,0,0,0,0,-8.8055,-8.808,-8.8274,-8.8176,-8.8198,-8.8183,-8.8247,-8.824,-8.8273,-8.8268,-8.8263,-8.8239,-8.8271,-8.8287,-8.8428,-8.8532,-8.8325,-8.8334,-8.88,-8.8812,-8.8822,-8.8997,0,0,0,0,0,0,-8.8061,-8.8074,-8.8278,-8.8283,-8.8111,-8.8171,-8.8179,-8.8235,-8.8262,-8.826,-8.82,-8.8188,-8.8276,-8.8287,-8.8301,-8.8531,-8.8312,-8.8321,-8.8326,-8.8809,-8.8818,-8.8826,0,0,0,0,0,0,-8.806,-8.8079,-8.828,-8.8201,-8.8196,-8.816,-8.8167,-8.8281,-8.8264,-8.8193,-8.8183,-8.8195,-8.8255,-8.8289,-8.8298,-8.8479,-8.8302,-8.831,-8.8316,-8.832,-8.8817,-8.8824,0,0,0,0,0,0,-8.8067,-8.8084,-8.8199,-8.8196,-8.8192,-8.8245,-8.826,-8.8378,-8.8198,-8.8193,-8.818,-8.8172,-8.8259,-8.8267,-8.8298,-8.8474,-8.8477,-8.8302,-8.8308,-8.8312,-8.8315,0,0,0,0,0,0,0,-8.8073,-8.7976,-8.8248,-8.8192,-8.8188,-8.8329,-8.833,-8.8332,-8.8196,-8.8189,-8.8182,-8.8175,-8.8253,-8.8262,-8.8272,-8.8471,0,0,-8.8301,-8.8305,0,0,0,0,0,0,0,0,-8.7968,-8.7974,-8.8249,-8.825,-8.8251,-8.8329,-8.833,-8.8331,-8.8195,-8.8189,-8.8183,-8.8178,-8.8256,-8.8263,-8.8271,0,0,0,0,0,0,0,0,0,0,0,0,0,0,0,-8.8249,-8.825,0,-8.8329,-8.833,-8.8331,-8.8194,-8.8189,-8.8185,-8.818,-8.8258,-8.8264,-8.827,0,0,0,0,0,0,0,0,0,0,0,0,0,0,0,0,0,0,0,0,0,0,0,0,0,0,0,0,0,0,0,0,0,0,0,0,0,0,0,0,0,0,0,0,0,0,0,0,0,0,0,0,0,0,0,0,0,0,0,0,0,0,0,0,0,0,0,0,0]}]]]